Tracking 31027 objects as of 18-Jul-2025
HD Live streaming from Space Station
objects crossing your sky now

CZ-2C R/B

Track CZ-2C R/B now!
10-day predictions


NORAD ID: 36089
Int'l Code: 2009-061B
Perigee: 670.8 km
Apogee: 781.6 km
Inclination: 98.4 °
Period: 99.2 minutes
Semi major axis: 7097 km
RCS: 9.563 m2 (large)
Launch date: November 12, 2009
Source: People's Republic of China (PRC)
Launch site: Jiuquan Satellite Launch Center, China (JSC)

Note: This is a ROCKET BODY
Your satellite tracking list
Your tracking list is empty




NASA's NSSDC Master Catalog

Two Line Element Set (TLE):
1 36089U 09061B   25199.49263805  .00000321  00000-0  88287-4 0  9998
2 36089  98.4113 170.5994 0078087 343.3215  16.5414 14.52016090829659
Source of the keplerian elements: AFSPC